User: anonymous
Location: Montague
(41.3030°N, 74.7940°W)
Time: 20:54:32
(UTC-04:00)
Language:

Cosmos 1461 - Orbit

View from above orbital plane
View from above orbital plane
View from above satellite
View from above satellite

Ground track
Ground track

The orbit data is extracted from the following two-line orbital elements,

1 14064U 83044A   14258.14716391  .00003650  00000-0  37230-3 0  6197
2 14064 065.0048 150.3803 0093445 081.4411 068.3247 14.88992488573246
Epoch (UTC): 15 September 2014 03:31:54
Eccentricity: 0.0093445
inclination: 65.0048°
perigee height: 536 km
apogee height: 666 km
right ascension of ascending node: 150.3803°
argument of perigee: 81.4411°
revolutions per day: 14.88992488
mean anomaly at epoch: 68.3247°
orbit number at epoch: 57324

The dashed part of the orbit path shows where the satellite is in the earth's shadow,  

DLR